User: anonymous   Login
Location: Croydon
(51.3762°N, 0.0982°W)
Time: 17:42:05
(UTC+00:00)
Language:

Transit 4A - Orbit

View from above orbital plane
View from above orbital plane
View from above satellite
View from above satellite

Ground track
Ground track

The orbit data is extracted from the following two-line orbital elements,

1   116U 61015A   19318.53014229 -.00000051  00000-0  19543-4 0  9992
2   116  66.8116  16.0507 0073974 165.2672 195.0587 13.91761775962263
Epoch (UTC): 14 November 2019 12:43:24
Eccentricity: 0.0073974
inclination: 66.8116°
perigee height: 868 km
apogee height: 976 km
right ascension of ascending node: 16.0507°
argument of perigee: 165.2672°
revolutions per day: 13.91761775
mean anomaly at epoch: 195.0587°
orbit number at epoch: 96226

The dashed part of the orbit path shows where the satellite is in the earth's shadow,  

DLR